Regional Weather Roundup
Issued by NWS Charleston, SC

Current Version | Previous Version | Graphics & Text | Print | Product List | Glossary Off
Versions: 1 2 3 4 5 6 7 8 9 10 11 12 13 14 15 16 17 18 19 20 21 22 23 24 25 26 27 28 29 30 31 32 33 34 35 36 37 38 39 40 41 42 43 44 45 46 47 48 49 50

000
ASUS42 KCHS 251925
RWRCHS

REGIONAL WEATHER ROUNDUP
NATIONAL WEATHER SERVICE CHARLESTON SC
300 PM EDT SAT OCT 25 2014

NOTE: "FAIR" INDICATES FEW OR NO CLOUDS BELOW 12,000 FEET WITH NO
SIGNIFICANT WEATHER AND/OR OBSTRUCTIONS TO VISIBILITY.

NOT ALL STATIONS ARE QUALITY CONTROLLED BY THE NATIONAL
WEATHER SERVICE. USE DATA WITH CAUTION...ESPECIALLY
DEWPOINT OBSERVATIONS.

SCZ027-030-031-034>040-042>050-252000-
...SOUTH CAROLINA...

CITY           SKY/WX    TMP DP  RH WIND       PRES   REMARKS
N CHARLESTON   SUNNY     76  44  32 NW6       29.96F
WATERFRONT PRK   N/A     72 N/A N/A N8          N/A
FORT JOHNSON   NOT AVBL
JOHNS ISLAND   CLEAR     77  48  36 CALM      29.97S
PINOPOLIS      NOT AVBL
MONCKS CORNER  FAIR      73  50  43 CALM      29.96F
SUMMERVILLE    FAIR      73  46  38 CALM      29.97F
BEAUFORT MCAS  SUNNY     75  47  36 NW6       29.98F
BEAUFORT ARPT  FAIR      73  50  43 NW8       29.97F HAZE
HILTON HEAD IS SUNNY     72  45  37 N8        29.99F
GEORGETOWN     NOT AVBL
WALTERBORO     CLEAR     75  36  23 W3        29.97F
ORANGEBURG     SUNNY     73  38  27 NW6       29.97F
BARNWELL       FAIR      77  45  31 W6        29.98F
AIKEN          FAIR      75  46  35 NW6       30.00F
MANNING        FAIR      75  46  35 SW6       29.95F
KINGSTREE      NOT AVBL
COLUMBIA       SUNNY     75  39  27 NW8       29.97F
SUMTER         SUNNY     74  41  30 W9        29.95F
FLORENCE       SUNNY     73  37  27 VRB3      29.94F
MYRTLE BEACH   SUNNY     73  41  31 NW12      29.95F
N MYRTLE BEACH SUNNY     76  41  28 VRB5      29.93F

$$

GAZ063-065-086>088-099>101-113>116-118-119-134-136>141-150-252000-
...GEORGIA...

CITY           SKY/WX    TMP DP  RH WIND       PRES   REMARKS
SAVANNAH ARPT  SUNNY     78  45  30 CALM      29.98F
HUNTER AAF     SUNNY     75  45  34 NW5       29.96F
FORT STEWART   SUNNY     77  45  32 CALM      29.97F
STATESBORO     NOT AVBL
SYLVANIA       CLEAR     81  51  34 NE5       29.98F
CLAXTON        FAIR      77  46  33 CALM      29.97F
THOMSON        SUNNY     76  53  44 NW3       30.04F
AUGUSTA-BUSH   SUNNY     78  34  20 NW10      29.98F
AUGUSTA-DANIEL SUNNY     76  40  27 W6        29.99F
SWAINSBORO     FAIR      81  46  30 MISG      29.98F
VIDALIA        SUNNY     77  46  33 N5        29.98F
ALMA           SUNNY     78  45  30 N6        29.98F
WAYCROSS       SUNNY     80  50  34 NW9       29.97F
JESUP          FAIR      79  48  34 N6        29.97F
BRUNSWICK      SUNNY     77  43  29 NW7       29.98F
SAINT SIMONS   SUNNY     75  46  35 MISG      29.98F

$$

SCZ027-028-034-036>038-045-046-048>050-GAZ119-141-252000-
...LAKE AND SUPPLEMENTAL COASTAL OBSERVATIONS...

STATION/POSITION TIME  TEMP    WIND        PRES    WAVE   SWELL
                       AIR SEA DIR/SP/G            HT/PER HT/PER/DIR
                 (UTC) (F)     (DEG/KT/KT) (MB)    (FT/S) (FT/S/D)
UPR LAKE MARION  NOT AVBL
WINYAH BAY       1900   72     290/  2     1014.0S
LAKE MURRAY      1800   69     190/  6/  6 1015.2F
ACE BASIN NERRS  1900   75     340/  2     1015.0S
FORT PULASKI     1900   71     360/  3/  4 1015.4F
SAPELO ISLAND    NOT AVBL

$$

ANZ835-935-AMZ111-154-330-350-352-354-374-450-454-472-252000-
...C-MAN AND BUOY OBSERVATIONS...

STATION/POSITION TIME  TEMP    WIND        PRES    WAVE   SWELL
                       AIR SEA DIR/SP/G            HT/PER HT/PER/DIR
                 (UTC) (F)     (DEG/KT/KT) (MB)    (FT/S) (FT/S/D)
FOLLY BEACH CMAN 1900   72      60/  3/  4 1015.1F
BUOY 41004       1900   68 78  340/  6/  8 1014.5F   3/10   2/10
BUOY 41008       1900   69 74   10/ 10/ 14 1015.4F   2/11   2/110/11
5E ST. MARYS GA  1900      75                N/A     2/11   2/100/11
FRYING PAN BUOY  1900   67 74  330/  8/ 12 1015.1F   2/ 9   2/120/ 9
BUOY 41025       1900   67     280/  8/ 10 1013.1F   3/ 9   3/ 40/ 9
CAPE LOOKOUT NC  1900   68     220/  6/  8 1013.0F
BUOY 41002       1842   72 77   10/ 10/ 14 1012.4F   4/10   3/ 10/10
BUOY 41010       1900   72 82   30/ 12/ 17 1012.5R   3/ 7   2/ 90/ 7
BUOY 41012       NOT AVBL
ST AUGUSTINE FL  1900   70      10/ 13/ 14 1015.5F
CAPERS NEARSHORE NOT AVBL
FRIPP NEARSHORE  NOT AVBL


$$



USA.gov is the U.S. government's official web portal to all federal, state and local government web resources and services.